RJCCRJCW

Guest
Details From RJCC - NEW CHITOSE
To RJCW - WAKKANAI
Flight Number -
Tags generated
Created
Modified
Stats Distance 158 nm / 293 km
Max Altitude 19,800 ft / 6,035 m
Waypoints 6
Social Downloads 0
Likes 0
Share VATSIM

Download

Looking for another format? Having issues loading an existing format? Contact us
Advertisement - Login to hide

Notes

Basic altitude profile: - Ascent Rate: 2500ft/min - Ascent Speed: 250kts - Cruise Altitude: 35000ft - Cruise Speed: 420kts - Descent Rate: 1500ft/min - Descent Speed: 250kts Options: - Use NATs: yes - Use PACOTS: yes - Use low airways: yes - Use high airways: yes

Route

RJCC RUMOI V1 KABTO RJCW

ID Type Via Altitude Latitude Longitude Leg Dist Tot Dist Heading (true) Name
O RJCC APT - 0 ft / 0 m 42.77521˚ 141.69228˚ - 0 nm - NEW CHITOSE
RUMOI FIX - 19,800 ft / 6,035 m 43.69934˚ 141.72903˚ 55 nm 55 nm 2° / 2° -
TESIO FIX V1 (AWY-LO) 9,000 ft / 2,743 m 44.90671˚ 141.78229˚ 72 nm 128 nm 2° / 2° -
YOROI FIX V1 (AWY-LO) 5,000 ft / 1,524 m 45.00864˚ 141.78558˚ 6 nm 134 nm 1° / 1° -
KABTO FIX V1 (AWY-LO) 4,000 ft / 1,219 m 45.23825˚ 141.78890˚ 13 nm 147 nm 1° / 1° -
O RJCW APT - 0 ft / 0 m 45.40411˚ 141.80093˚ 9 nm 157 nm 3° / 3° WAKKANAI

Altitude Profile

Advertisement - Login to hide

RJCC

Details ICAO RJCC (CTS)
Name NEW CHITOSE
Region Japan
Timezone Asia/Tokyo (UTC+9.0)
Stats Elevation 82 ft / 25 m (AMSL)
Location 42.775206° 141.692283°
Runways 2
Magnetic Variation 9.407° W

METAR

RJCC 210130Z VRB03KT 9999 FEW050 19/05 Q1015 RMK 1CU050 A2999

Decode

TAF

TAF RJCC 202305Z 2100/2206 35009KT 9999 FEW040 BECMG 2105/2107 16005KT

Decode

Departure Runways

ID Width Length Bearing (true) Bearing (mag) Surface Threshold Offset Overrun Length
01L 200 ft / 61 m 9,859 ft / 3,005 m 352.64° 2.05° Asphalt 0 ft / 0 m 185 ft / 56 m
01R 200 ft / 61 m 9,854 ft / 3,004 m 352.64° 2.05° Asphalt 0 ft / 0 m 185 ft / 56 m
19L 200 ft / 61 m 9,854 ft / 3,004 m 172.64° 182.05° Asphalt 0 ft / 0 m 185 ft / 56 m
19R 200 ft / 61 m 9,859 ft / 3,005 m 172.63° 182.04° Asphalt 0 ft / 0 m 185 ft / 56 m

RJCW

Details ICAO RJCW (WKJ)
Name WAKKANAI
Region Japan
Timezone Asia/Tokyo (UTC+9.0)
Stats Elevation 30 ft / 9 m (AMSL)
Location 45.404111° 141.800926°
Runways 1
Magnetic Variation 10.162° W

METAR

RJCW 210100Z 22015KT CAVOK 15/06 Q1013

Decode

TAF

Not found

Destination Runways

ID Width Length Bearing (true) Bearing (mag) Surface Threshold Offset Overrun Length
08 150 ft / 46 m 6,548 ft / 1,996 m 68.83° 78.99° Asphalt 0 ft / 0 m 200 ft / 61 m
26 150 ft / 46 m 6,548 ft / 1,996 m 248.85° 259.01° Asphalt 0 ft / 0 m 200 ft / 61 m

Approach Navaids

Runway Type Ident Frequency Range Bearing (true) Bearing (mag) Slope Elevation
08 Localiser IWK 111.10 MHz 18 nm / 33 km 68.85° 79.01° - 30 ft / 9 m (AMSL)
08 Glidescope IWK 111.10 MHz 10 nm / 19 km 68.84° 79.00° 3.00° 54 ft / 16 m (AMSL)

Popular Alternatives